Location: Cuiry
(49.3858°N, 3.7708°E)
Time: 01:34:15
(UTC+00:00)

UNK - Pass Details

Date: 16 April 2026
Orbit: 653 x 673 km, 98.4° (Epoch: 19 May)

Event Time Altitude Azimuth Distance (km) Brightness Sun altitude
Rises 03:39:17 0° 147° (SSE) 3,012 7.1 -11.6°
Reaches altitude 10° 03:41:34 10° 141° (SE) 2,101 6.4 -11.2°
Maximum altitude 03:45:56 46° 69° (ENE) 901 5.0 -10.6°
Drops below altitude 10° 03:50:21 10° 356° (N) 2,108 6.6 -10.0°
Sets 03:52:38 0° 351° (N) 3,024 7.4 -9.7°
